sat.trackr.live / text

‹ back to catalog

STARLINK-34421

NORAD 64459 · 2025-130X

PAYLOAD ACTIVE UNKNOWN

§ Identity

Operator
Country
US
Launch date
2025-06-18
Launch site
AFETR
Launch vehicle
Mass (kg)
RCS (m²)

Purposes: comms

External: N2YO · Heavens-Above · Gunter

§ Orbital elements

Epoch: 2026-09-20T23:30:02.171520Z

Period
93.85 min
Inclination
53.1582°
Eccentricity
0.0001698
Mean motion
15.34408097 rev/d
Perigee alt
461.5 km
Apogee alt
463.8 km
Semi-major
6,840.8 km
B*
5.3058e-4
RAAN
257.1166°
Arg perigee
86.8681°
Mean anomaly
273.2516°
Rev number
7,066

§ Raw data

STARLINK-344211 64459U 25130X   26263.97919180  .00017597  00000+0  53058-3 0  99942 64459  53.1582 257.1166 0001698  86.8681 273.2516 15.34408097 70669

JSON: /api/v1/satellites/64459 · /tle

For live sub-satellite position, see the globe view (requires WebGL).

§ Visibility from observer

Set your observer location to see the next 7 days of passes ≥ 10°. The values pass through the URL so the page stays shareable.

No JS? Fill the form by hand. The geolocation button needs JavaScript.